Find STARLINK-37542

NORAD ID: 70582 Constellation: starlink operational
LEOCIRCULARRETROGRADE

Live Position

Loading 3D Globe...

About STARLINK-37542

Description loading...

Upcoming Passes

Passes for default location (London). Set your location on the main map for personalized predictions.

Altitude History

Loading altitude history...

Two-Line Element Set

1 70582C 26097Y 26121.90465278 -.00192440 00000+0 -27259-3 0 1215
2 70582 97.2854 316.5679 0009301 254.5456 133.0362 16.05673468 15
Epoch: May 1, 2026 • Age: 28 hours